Location: Oshawa
(43.9000°N, 78.8670°W)
Time: 18:17:58
(UTC-04:00)

Cosmos 1500 - Visible Passes

Search period start: 28 July 2016 00:00
Search period end: 07 August 2016 00:00
Orbit: 504 x 527 km, 82.5° (Epoch: 28 July)

Date Brightness Start Highest point End Pass type
(mag) Time Alt. Az. Time Alt. Az. Time Alt. Az.
28 Jul 4.6 01:28:23 37° NNE 01:28:23 37° NNE 01:30:48 10° NNE visible
29 Jul 4.8 01:13:29 32° NNE 01:13:29 32° NNE 01:15:43 10° NNE visible
29 Jul 5.9 02:48:29 10° WNW 02:48:29 10° WNW 02:48:40 10° WNW visible
30 Jul 5.0 00:58:33 28° NE 00:58:33 28° NE 01:00:37 10° NNE visible
30 Jul 5.8 02:33:34 12° WNW 02:33:34 12° WNW 02:34:35 10° NW visible
31 Jul 5.1 00:43:38 24° NE 00:43:38 24° NE 00:45:29 10° NNE visible
31 Jul 5.7 02:18:38 14° NW 02:18:38 14° NW 02:20:02 10° NW visible
01 Aug 5.3 00:28:41 21° NE 00:28:41 21° NE 00:30:19 10° NNE visible
01 Aug 5.6 02:03:42 16° NW 02:03:42 16° NW 02:05:19 10° NNW visible
02 Aug 5.4 00:13:44 18° NE 00:13:44 18° NE 00:15:07 10° NNE visible
02 Aug 5.5 01:48:44 18° NW 01:48:44 18° NW 01:50:31 10° NNW visible
02 Aug 5.6 23:58:46 16° NE 23:58:46 16° NE 23:59:53 10° NE visible
03 Aug 5.4 01:33:46 20° NW 01:33:46 20° NW 01:35:40 10° NNW visible
03 Aug 5.7 23:43:48 13° NE 23:43:48 13° NE 23:44:34 10° NE visible
04 Aug 5.4 01:18:48 23° NW 01:18:48 23° NW 01:20:45 10° NNW visible
04 Aug 5.8 23:28:48 11° NE 23:28:48 11° NE 23:29:11 10° NE visible
05 Aug 5.3 01:03:48 25° NNW 01:03:48 25° NNW 01:05:49 10° N visible
06 Aug 5.2 00:48:48 27° NNW 00:48:48 27° NNW 00:50:51 10° N visible
